Location: Newark
(50.0306°N, 2.3272°E)
Time: 03:55:31
(UTC+00:00)

A-11 Canister half - Pass Details

Date: 09 December 2019
Orbit: 1525 x 1684 km, 47.3° (Epoch: 27 January)

Event Time Altitude Azimuth Distance (km) Brightness Sun altitude
Rises 09:29:31 0° 270° (W) 4,939 11.4 11.4°
Reaches altitude 10° 09:32:42 10° 269° (W) 3,948 10.9 11.7°
Maximum altitude 09:42:50 76° 186° (S) 1,708 9.7 12.5°
Drops below altitude 10° 09:52:45 10° 103° (ESE) 3,865 11.8 13.2°
Sets 09:55:50 0° 102° (ESE) 4,831 12.2 13.4°
